This is the latest recevied weather packets stored in our database for station/object KD0SBN-3. If no packets are shown the sender has not sent any weather packets the latest 10 day(s).
| Time | Temp. | Humidity | Pressure | Rain* | Wind** | Luminosity | Snow |
|---|---|---|---|---|---|---|---|
| 1778018991 | 3.33° C | 95% | 1017.3 hPa | 0 mm | - | 29 W/m² | - |
| 1778018688 | 3.89° C | 95% | 1017.5 hPa | 1.78 mm | - | 90 W/m² | - |
| 1778018385 | 3.33° C | 94% | 1017.4 hPa | 1.78 mm | - | 121 W/m² | - |
| 1778018084 | 3.89° C | 94% | 1017.4 hPa | 0 mm | - | 177 W/m² | - |
| 1778017781 | 3.33° C | 94% | 1017.5 hPa | 0 mm | - | 72 W/m² | - |
| 1778017479 | 3.33° C | 93% | 1017.8 hPa | 0 mm | - | 52 W/m² | - |
| 1778017176 | 3.89° C | 93% | 1017.7 hPa | 0 mm | - | 87 W/m² | - |
| 1778016873 | 3.89° C | 93% | 1017.8 hPa | 0 mm | - | 156 W/m² | - |
| 1778016569 | 2.78° C | 94% | 1017.9 hPa | 0 mm | - | 165 W/m² | - |
| 1778016267 | 3.33° C | 94% | 1018.2 hPa | 0 mm | - | 117 W/m² | - |
| 1778015963 | 3.33° C | 94% | 1017.9 hPa | 0 mm | - | 102 W/m² | - |
| 1778015660 | 3.33° C | 94% | 1018.2 hPa | 1.27 mm | - | 45 W/m² | - |
| 1778015357 | 3.33° C | 93% | 1018.3 hPa | 1.27 mm | - | 71 W/m² | - |
| 1778015063 | 3.33° C | 92% | 1018.2 hPa | 0 mm | - | 200 W/m² | - |
| 1778014751 | 3.33° C | 92% | 1018.5 hPa | 1.78 mm | - | 228 W/m² | - |
| 1778014449 | 3.33° C | 91% | 1018.5 hPa | 1.78 mm | - | 117 W/m² | - |
| 1778014146 | 3.89° C | 89% | 1018.5 hPa | 0 mm | - | 99 W/m² | - |
| 1778013843 | 4.44° C | 88% | 1018.6 hPa | 0 mm | - | 68 W/m² | - |
| 1778013540 | 5° C | 85% | 1018.6 hPa | 0 mm | - | 88 W/m² | - |
| 1778013237 | 5.56° C | 80% | 1018.9 hPa | 0 mm | - | 156 W/m² | - |
| 1778012933 | 5.56° C | 75% | 1018.6 hPa | 0 mm | - | 123 W/m² | - |
| 1778012629 | 5.56° C | 74% | 1018.5 hPa | 0 mm | - | 109 W/m² | - |
| 1778012326 | 6.11° C | 70% | 1018.6 hPa | 0 mm | - | 90 W/m² | - |
| 1778012023 | 7.78° C | 63% | 1018.5 hPa | 0 mm | - | 93 W/m² | - |
| 1778011722 | 8.33° C | 55% | 1018.3 hPa | 0 mm | - | 152 W/m² | - |
* Rain latest hour (hover to see other rain measurements)
** Current wind speed in m/s (hover to see current wind gust speed)